Voltar ao catálogo

YAHSAT 1B

AtivoComunicaçõesGEO
NORAD 38245·PAYLOAD·🇦🇪 UAE

Lançado Apr 23, 2012 de Baikonur Cosmodrome

Loading…

TLE

AtualizadoSource: Space-Track

Época: Sep 14, 2026, 14:01 UTC

1 38245U 12016A   26257.58454772  .00000119  00000-0  00000-0 0  9997
2 38245   0.0996  89.0265 0000980  75.7249  86.8630  1.00271455 46500

Acompanhe YAHSAT 1B em tempo real com AllMySat

Download on the App Store